| time (UTC) | temp F | wind direction | speed knots | gust knots | rain 1hr in | rain 24hr in | rain mn in | humidity % | barometer mb |
| 20260507190057 | 62 | 230 | 2.6 | 8.7 | 0.00 | 0.00 | 0.00 | 47 | 1016.3 |
| 20260507185559 | 62 | 249 | 2.6 | 8.7 | 0.00 | 0.00 | 0.00 | 47 | 1016.3 |
| 20260507185055 | 61 | 235 | 2.6 | 8.7 | 0.00 | 0.00 | 0.00 | 47 | 1016.4 |
| 20260507184558 | 62 | 277 | 2.6 | 8.7 | 0.00 | 0.00 | 0.00 | 48 | 1016.4 |
| 20260507184058 | 62 | 247 | 0.9 | 8.7 | 0.00 | 0.00 | 0.00 | 50 | 1016.4 |
| 20260507183600 | 61 | 248 | 1.7 | 8.7 | 0.00 | 0.00 | 0.00 | 49 | 1016.5 |
| 20260507183059 | 61 | 247 | 1.7 | 9.6 | 0.00 | 0.00 | 0.00 | 49 | 1016.5 |
| 20260507182558 | 61 | 274 | 2.6 | 9.6 | 0.00 | 0.00 | 0.00 | 50 | 1016.5 |
| 20260507182059 | 61 | 246 | 3.5 | 9.6 | 0.00 | 0.00 | 0.00 | 49 | 1016.5 |
| 20260507181605 | 60 | 244 | 1.7 | 9.6 | 0.00 | 0.00 | 0.00 | 52 | 1016.6 |
| 20260507181059 | 60 | 226 | 2.6 | 9.6 | 0.00 | 0.00 | 0.00 | 51 | 1016.6 |
| 20260507180559 | 60 | 230 | 2.6 | 9.6 | 0.00 | 0.00 | 0.00 | 50 | 1016.7 |
| 20260507180057 | 60 | 253 | 2.6 | 9.6 | 0.00 | 0.00 | 0.00 | 52 | 1016.7 |
| 20260507175558 | 60 | 251 | 1.7 | 8.7 | 0.00 | 0.00 | 0.00 | 52 | 1016.7 |
| 20260507175058 | 59 | 247 | 0.9 | 8.7 | 0.00 | 0.00 | 0.00 | 54 | 1016.7 |
| 20260507174602 | 58 | 217 | 2.6 | 8.7 | 0.00 | 0.00 | 0.00 | 55 | 1016.9 |
| 20260507174058 | 58 | 274 | 1.7 | 7.0 | 0.00 | 0.00 | 0.00 | 55 | 1017.0 |
| 20260507173558 | 57 | 241 | 1.7 | 6.1 | 0.00 | 0.00 | 0.00 | 55 | 1017.0 |
| 20260507173101 | 57 | 280 | 1.7 | 5.2 | 0.00 | 0.00 | 0.00 | 56 | 1017.0 |
| 20260507172600 | 57 | 277 | 2.6 | 5.2 | 0.00 | 0.00 | 0.00 | 56 | 1017.1 |
| 20260507172058 | 57 | 260 | 2.6 | 6.1 | 0.00 | 0.00 | 0.00 | 56 | 1017.2 |
| 20260507171603 | 56 | 233 | 1.7 | 6.1 | 0.00 | 0.00 | 0.00 | 56 | 1017.1 |
| 20260507171058 | 56 | 187 | 1.7 | 5.2 | 0.00 | 0.00 | 0.00 | 57 | 1017.2 |
| 20260507170602 | 56 | 261 | 1.7 | 8.7 | 0.00 | 0.00 | 0.00 | 57 | 1017.2 |
| 20260507170059 | 55 | 240 | 2.6 | 8.7 | 0.00 | 0.00 | 0.00 | 57 | 1017.2 |
| 20260507165558 | 55 | 221 | 1.7 | 10.4 | 0.00 | 0.00 | 0.00 | 58 | 1017.1 |
| 20260507165058 | 55 | 228 | 0.9 | 10.4 | 0.00 | 0.00 | 0.00 | 59 | 1017.1 |
| 20260507164602 | 54 | 207 | 2.6 | 10.4 | 0.00 | 0.00 | 0.00 | 58 | 1017.0 |
| 20260507164059 | 54 | 232 | 1.7 | 6.1 | 0.00 | 0.00 | 0.00 | 59 | 1017.1 |
| 20260507163559 | 54 | 325 | 0.9 | 7.0 | 0.00 | 0.00 | 0.00 | 59 | 1017.1 |
| 20260507163057 | 53 | 230 | 2.6 | 8.7 | 0.00 | 0.00 | 0.00 | 60 | 1017.1 |
| 20260507162558 | 53 | 228 | 2.6 | 8.7 | 0.00 | 0.00 | 0.00 | 60 | 1017.3 |
| 20260507162058 | 53 | 237 | 2.6 | 7.0 | 0.00 | 0.00 | 0.00 | 59 | 1017.2 |
| 20260507161610 | 53 | 252 | 0.9 | 7.0 | 0.00 | 0.00 | 0.00 | 60 | 1017.2 |
| 20260507161058 | 53 | 337 | 1.7 | 7.0 | 0.00 | 0.00 | 0.00 | 60 | 1017.2 |
| 20260507160558 | 52 | 268 | 1.7 | 7.0 | 0.00 | 0.00 | 0.00 | 61 | 1017.3 |
| 20260507160058 | 52 | 110 | 1.7 | 7.0 | 0.00 | 0.00 | 0.00 | 61 | 1017.5 |
| 20260507155558 | 52 | 234 | 1.7 | 6.1 | 0.00 | 0.00 | 0.00 | 61 | 1017.5 |
| 20260507155058 | 52 | 258 | 1.7 | 6.1 | 0.00 | 0.00 | 0.00 | 61 | 1017.5 |
| 20260507154558 | 52 | 60 | 0.9 | 7.8 | 0.00 | 0.00 | 0.00 | 63 | 1017.5 |
| 20260507154059 | 51 | 298 | 0.9 | 7.8 | 0.00 | 0.00 | 0.00 | 62 | 1017.5 |
| 20260507153559 | 51 | 239 | 0.9 | 7.0 | 0.00 | 0.00 | 0.00 | 63 | 1017.6 |
| 20260507153114 | 51 | 216 | 0.9 | 7.0 | 0.00 | 0.00 | 0.00 | 64 | 1017.5 |
| 20260507152558 | 50 | 352 | 1.7 | 7.0 | 0.00 | 0.00 | 0.00 | 63 | 1017.4 |
| 20260507152058 | 50 | 199 | 0.9 | 3.5 | 0.00 | 0.00 | 0.00 | 64 | 1017.5 |
| 20260507151600 | 50 | 259 | 0.9 | 4.3 | 0.00 | 0.00 | 0.00 | 64 | 1017.3 |
| 20260507151058 | 50 | 223 | 1.7 | 6.1 | 0.00 | 0.00 | 0.00 | 65 | 1017.2 |
| 20260507150558 | 49 | 245 | 1.7 | 6.1 | 0.00 | 0.00 | 0.00 | 65 | 1017.3 |
| 20260507145558 | 49 | 251 | 2.6 | 7.8 | 0.00 | 0.00 | 0.00 | 65 | 1017.3 |
| 20260507145102 | 49 | 250 | 2.6 | 7.8 | 0.00 | 0.00 | 0.00 | 66 | 1017.3 |
| 20260507144558 | 48 | 228 | 1.7 | 7.8 | 0.00 | 0.00 | 0.00 | 66 | 1017.2 |
| 20260507144058 | 48 | 237 | 2.6 | 5.2 | 0.00 | 0.00 | 0.00 | 67 | 1017.2 |
| 20260507143600 | 47 | 245 | 2.6 | 5.2 | 0.00 | 0.00 | 0.00 | 67 | 1017.3 |
| 20260507143102 | 47 | 318 | 1.7 | 5.2 | 0.00 | 0.00 | 0.00 | 69 | 1017.2 |
| 20260507142558 | 47 | 243 | 1.7 | 4.3 | 0.00 | 0.00 | 0.00 | 68 | 1017.1 |
| 20260507142058 | 47 | 244 | 1.7 | 7.8 | 0.00 | 0.00 | 0.00 | 69 | 1017.1 |
| 20260507141555 | 46 | 241 | 1.7 | 7.8 | 0.00 | 0.00 | 0.00 | 69 | 1017.1 |
| 20260507141058 | 46 | 245 | 0.9 | 5.2 | 0.00 | 0.00 | 0.00 | 69 | 1016.9 |
| 20260507140558 | 46 | 242 | 1.7 | 5.2 | 0.00 | 0.00 | 0.00 | 69 | 1016.8 |
| 20260507140101 | 46 | 238 | 1.7 | 4.3 | 0.00 | 0.00 | 0.00 | 69 | 1016.9 |
| 20260507135559 | 46 | 260 | 1.7 | 5.2 | 0.00 | 0.00 | 0.00 | 69 | 1017.0 |
| 20260507135102 | 46 | 259 | 1.7 | 6.1 | 0.00 | 0.00 | 0.00 | 68 | 1017.0 |
| 20260507134559 | 45 | 256 | 1.7 | 6.1 | 0.00 | 0.00 | 0.00 | 69 | 1016.9 |
| 20260507134057 | 45 | 273 | 0.9 | 5.2 | 0.00 | 0.00 | 0.00 | 70 | 1017.0 |
| 20260507133558 | 45 | 214 | 1.7 | 5.2 | 0.00 | 0.00 | 0.00 | 69 | 1016.8 |
| 20260507133058 | 45 | 246 | 1.7 | 7.8 | 0.00 | 0.00 | 0.00 | 69 | 1016.7 |
| 20260507132559 | 45 | 236 | 1.7 | 7.8 | 0.00 | 0.00 | 0.00 | 70 | 1016.6 |
| 20260507132058 | 45 | 246 | 1.7 | 10.4 | 0.00 | 0.00 | 0.00 | 70 | 1016.7 |
| 20260507131556 | 45 | 235 | 1.7 | 10.4 | 0.00 | 0.00 | 0.00 | 71 | 1016.7 |
| 20260507131058 | 44 | 194 | 0.9 | 7.8 | 0.00 | 0.00 | 0.00 | 72 | 1016.8 |
| 20260507130559 | 44 | 192 | 2.6 | 7.8 | 0.00 | 0.00 | 0.00 | 71 | 1016.7 |
| 20260507130107 | 44 | 145 | 1.7 | 10.4 | 0.00 | 0.00 | 0.00 | 73 | 1016.7 |
| 20260507125558 | 44 | 224 | 2.6 | 10.4 | 0.00 | 0.00 | 0.00 | 73 | 1016.8 |
| 20260507125057 | 44 | 266 | 1.7 | 8.7 | 0.00 | 0.00 | 0.00 | 73 | 1016.8 |
| 20260507124620 | 44 | 247 | 1.7 | 10.4 | 0.00 | 0.00 | 0.00 | 73 | 1016.7 |
| 20260507124059 | 44 | 0 | 1.7 | 10.4 | 0.00 | 0.00 | 0.00 | 74 | 1016.9 |
| 20260507123559 | 44 | 216 | 2.6 | 10.4 | 0.00 | 0.00 | 0.00 | 74 | 1017.0 |
| 20260507123108 | 44 | 257 | 1.7 | 9.6 | 0.00 | 0.00 | 0.00 | 74 | 1017.1 |
| 20260507122559 | 44 | 201 | 2.6 | 15.6 | 0.00 | 0.00 | 0.00 | 75 | 1017.1 |
| 20260507122058 | 45 | 10 | 2.6 | 15.6 | 0.00 | 0.00 | 0.00 | 75 | 1017.1 |
| 20260507121602 | 45 | 162 | 4.3 | 15.6 | 0.00 | 0.00 | 0.00 | 74 | 1017.2 |
| 20260507121059 | 45 | 226 | 2.6 | 12.2 | 0.00 | 0.00 | 0.00 | 75 | 1017.1 |
| 20260507120558 | 45 | 140 | 0.9 | 15.6 | 0.00 | 0.00 | 0.00 | 75 | 1017.1 |
| 20260507120057 | 45 | 72 | 2.6 | 15.6 | 0.00 | 0.00 | 0.00 | 74 | 1017.2 |
| 20260507115558 | 45 | 222 | 3.5 | 11.3 | 0.00 | 0.00 | 0.00 | 74 | 1017.3 |
| 20260507115058 | 45 | 107 | 2.6 | 15.6 | 0.00 | 0.00 | 0.00 | 75 | 1017.3 |
| 20260507114602 | 45 | 101 | 3.5 | 15.6 | 0.00 | 0.00 | 0.00 | 76 | 1017.3 |
| 20260507114058 | 45 | 162 | 4.3 | 15.6 | 0.00 | 0.00 | 0.00 | 75 | 1017.4 |
| 20260507113601 | 46 | 277 | 2.6 | 11.3 | 0.00 | 0.00 | 0.00 | 76 | 1017.3 |
| 20260507113057 | 46 | 241 | 2.6 | 11.3 | 0.00 | 0.00 | 0.00 | 76 | 1017.3 |
| 20260507112600 | 46 | 320 | 3.5 | 11.3 | 0.00 | 0.00 | 0.00 | 76 | 1017.4 |
| 20260507112102 | 46 | 205 | 2.6 | 11.3 | 0.00 | 0.00 | 0.00 | 76 | 1017.4 |
| 20260507111558 | 46 | 222 | 0.9 | 13.0 | 0.00 | 0.00 | 0.00 | 76 | 1017.6 |
| 20260507111059 | 46 | 173 | 5.2 | 13.0 | 0.00 | 0.00 | 0.00 | 76 | 1017.4 |
| 20260507110559 | 46 | 192 | 3.5 | 13.0 | 0.00 | 0.00 | 0.00 | 76 | 1017.3 |
| 20260507110056 | 46 | 41 | 2.6 | 15.6 | 0.00 | 0.00 | 0.00 | 76 | 1017.3 |
| 20260507105559 | 46 | 147 | 3.5 | 15.6 | 0.00 | 0.00 | 0.00 | 76 | 1017.4 |
| 20260507105058 | 46 | 251 | 4.3 | 14.8 | 0.00 | 0.00 | 0.00 | 76 | 1017.3 |
| 20260507104558 | 46 | 152 | 3.5 | 12.2 | 0.00 | 0.00 | 0.00 | 76 | 1017.2 |
| 20260507104058 | 46 | 272 | 3.5 | 12.2 | 0.00 | 0.00 | 0.00 | 76 | 1017.4 |
| 20260507103558 | 46 | 179 | 1.7 | 11.3 | 0.00 | 0.00 | 0.00 | 76 | 1017.5 |
| 20260507103109 | 46 | 179 | 3.5 | 11.3 | 0.00 | 0.00 | 0.00 | 76 | 1017.3 |
| 20260507102559 | 46 | 127 | 1.7 | 13.9 | 0.00 | 0.00 | 0.00 | 75 | 1017.2 |
| 20260507102059 | 47 | 116 | 4.3 | 13.9 | 0.00 | 0.00 | 0.00 | 75 | 1017.1 |
| 20260507101601 | 47 | 157 | 3.5 | 13.9 | 0.00 | 0.00 | 0.00 | 76 | 1017.0 |
| 20260507101058 | 47 | 31 | 3.5 | 15.6 | 0.00 | 0.00 | 0.00 | 76 | 1017.2 |
| 20260507100558 | 47 | 279 | 5.2 | 15.6 | 0.00 | 0.00 | 0.00 | 75 | 1017.2 |
| 20260507100111 | 47 | 246 | 2.6 | 13.9 | 0.00 | 0.00 | 0.00 | 76 | 1017.3 |
| 20260507095601 | 47 | 234 | 7.0 | 13.9 | 0.00 | 0.00 | 0.00 | 75 | 1017.1 |
| 20260507095058 | 47 | 216 | 3.5 | 9.6 | 0.00 | 0.00 | 0.00 | 75 | 1017.3 |
| 20260507094559 | 47 | 231 | 3.5 | 14.8 | 0.00 | 0.00 | 0.00 | 74 | 1017.2 |
| 20260507094059 | 47 | 255 | 4.3 | 14.8 | 0.00 | 0.00 | 0.00 | 73 | 1017.2 |
| 20260507093558 | 47 | 214 | 5.2 | 13.9 | 0.00 | 0.00 | 0.00 | 73 | 1017.2 |
| 20260507093100 | 47 | 201 | 4.3 | 15.6 | 0.00 | 0.00 | 0.00 | 74 | 1017.2 |
| 20260507092558 | 47 | 191 | 4.3 | 15.6 | 0.00 | 0.00 | 0.00 | 74 | 1017.4 |
| 20260507092100 | 47 | 187 | 2.6 | 12.2 | 0.00 | 0.00 | 0.00 | 75 | 1017.2 |
| 20260507091558 | 47 | 276 | 3.5 | 12.2 | 0.00 | 0.00 | 0.00 | 76 | 1017.0 |
| 20260507091058 | 47 | 331 | 1.7 | 10.4 | 0.00 | 0.00 | 0.00 | 77 | 1017.2 |
| 20260507090559 | 47 | 234 | 2.6 | 11.3 | 0.00 | 0.00 | 0.00 | 77 | 1017.1 |
| 20260507090056 | 47 | 0 | 1.7 | 11.3 | 0.00 | 0.00 | 0.00 | 78 | 1017.1 |
| 20260507085558 | 47 | 264 | 2.6 | 8.7 | 0.00 | 0.00 | 0.00 | 78 | 1017.1 |
| 20260507085058 | 47 | 153 | 2.6 | 12.2 | 0.00 | 0.00 | 0.00 | 78 | 1017.0 |
| 20260507084600 | 47 | 175 | 1.7 | 12.2 | 0.00 | 0.00 | 0.00 | 79 | 1017.0 |
| 20260507084058 | 47 | 74 | 3.5 | 12.2 | 0.00 | 0.00 | 0.00 | 78 | 1016.8 |
| 20260507083559 | 47 | 216 | 3.5 | 13.9 | 0.00 | 0.00 | 0.00 | 79 | 1016.6 |
| 20260507083110 | 47 | 139 | 3.5 | 13.9 | 0.00 | 0.00 | 0.00 | 79 | 1016.6 |
| 20260507082559 | 47 | 141 | 2.6 | 9.6 | 0.00 | 0.00 | 0.00 | 78 | 1016.5 |
| 20260507082058 | 47 | 176 | 3.5 | 17.4 | 0.00 | 0.00 | 0.00 | 78 | 1016.5 |
| 20260507081601 | 48 | 340 | 1.7 | 17.4 | 0.00 | 0.00 | 0.00 | 77 | 1016.5 |
| 20260507081059 | 48 | 268 | 4.3 | 17.4 | 0.00 | 0.00 | 0.00 | 77 | 1016.5 |
| 20260507080557 | 48 | 208 | 2.6 | 11.3 | 0.00 | 0.00 | 0.00 | 77 | 1016.6 |
| 20260507080057 | 48 | 268 | 1.7 | 11.3 | 0.00 | 0.00 | 0.00 | 76 | 1016.7 |
| 20260507075558 | 48 | 210 | 1.7 | 12.2 | 0.00 | 0.00 | 0.00 | 76 | 1016.7 |
| 20260507075058 | 48 | 243 | 2.6 | 12.2 | 0.00 | 0.00 | 0.00 | 75 | 1017.0 |
| 20260507074611 | 48 | 227 | 3.5 | 12.2 | 0.00 | 0.00 | 0.00 | 75 | 1017.0 |
| 20260507074057 | 48 | 239 | 1.7 | 12.2 | 0.00 | 0.00 | 0.00 | 75 | 1017.1 |
| 20260507073600 | 48 | 265 | 3.5 | 12.2 | 0.00 | 0.00 | 0.00 | 74 | 1017.0 |
| 20260507073102 | 48 | 207 | 2.6 | 13.0 | 0.00 | 0.00 | 0.00 | 74 | 1017.0 |
| 20260507072559 | 48 | 186 | 2.6 | 13.0 | 0.00 | 0.00 | 0.00 | 74 | 1017.1 |
| 20260507072058 | 48 | 10 | 1.7 | 10.4 | 0.00 | 0.00 | 0.00 | 74 | 1017.1 |
| 20260507071557 | 48 | 232 | 2.6 | 10.4 | 0.00 | 0.00 | 0.00 | 74 | 1017.1 |
| 20260507071058 | 48 | 156 | 2.6 | 8.7 | 0.00 | 0.00 | 0.00 | 74 | 1017.1 |
| 20260507070558 | 48 | 288 | 1.7 | 14.8 | 0.00 | 0.00 | 0.00 | 74 | 1017.3 |
| 20260507065559 | 48 | 149 | 0.9 | 11.3 | 0.00 | 0.00 | 0.00 | 75 | 1017.3 |
| 20260507065058 | 48 | 76 | 1.7 | 11.3 | 0.00 | 0.00 | 0.00 | 75 | 1017.3 |
| 20260507064602 | 48 | 186 | 1.7 | 8.7 | 0.00 | 0.00 | 0.00 | 76 | 1017.3 |
| 20260507064058 | 48 | 254 | 2.6 | 13.0 | 0.00 | 0.00 | 0.00 | 76 | 1017.4 |
| 20260507063557 | 48 | 200 | 1.7 | 13.0 | 0.00 | 0.00 | 0.00 | 77 | 1017.3 |
| 20260507063100 | 48 | 92 | 2.6 | 9.6 | 0.00 | 0.00 | 0.00 | 77 | 1017.4 |
| 20260507062559 | 48 | 243 | 1.7 | 8.7 | 0.00 | 0.00 | 0.00 | 77 | 1017.4 |
| 20260507062059 | 48 | 123 | 1.7 | 11.3 | 0.00 | 0.00 | 0.00 | 77 | 1017.3 |
| 20260507061559 | 48 | 201 | 1.7 | 11.3 | 0.00 | 0.00 | 0.00 | 77 | 1017.4 |
| 20260507061058 | 48 | 166 | 1.7 | 14.8 | 0.00 | 0.00 | 0.00 | 77 | 1017.5 |
| 20260507060558 | 48 | 329 | 2.6 | 14.8 | 0.00 | 0.00 | 0.00 | 77 | 1017.6 |
| 20260507060110 | 48 | 139 | 1.7 | 14.8 | 0.00 | 0.00 | 0.00 | 78 | 1017.6 |
| 20260507055558 | 48 | 328 | 1.7 | 14.8 | 0.00 | 0.00 | 0.00 | 78 | 1017.7 |
| 20260507055059 | 48 | 115 | 2.6 | 14.8 | 0.00 | 0.00 | 0.00 | 78 | 1017.8 |
| 20260507054558 | 48 | 356 | 0.9 | 9.6 | 0.00 | 0.00 | 0.00 | 79 | 1017.8 |
| 20260507054058 | 48 | 95 | 1.7 | 9.6 | 0.00 | 0.00 | 0.00 | 79 | 1017.8 |
| 20260507053558 | 48 | 252 | 1.7 | 11.3 | 0.00 | 0.00 | 0.00 | 79 | 1017.8 |
| 20260507053059 | 48 | 220 | 0.9 | 11.3 | 0.00 | 0.00 | 0.00 | 79 | 1017.8 |
| 20260507052600 | 48 | 178 | 4.3 | 11.3 | 0.00 | 0.00 | 0.00 | 78 | 1017.8 |
| 20260507052059 | 48 | 174 | 0.9 | 10.4 | 0.00 | 0.00 | 0.00 | 78 | 1017.9 |
| 20260507051601 | 48 | 92 | 1.7 | 10.4 | 0.00 | 0.00 | 0.00 | 79 | 1018.0 |
| 20260507051059 | 49 | 149 | 0.9 | 5.2 | 0.00 | 0.00 | 0.00 | 78 | 1018.0 |
| 20260507050603 | 49 | 313 | 0.9 | 7.0 | 0.00 | 0.00 | 0.00 | 78 | 1018.0 |
| 20260507050100 | 49 | 288 | 0.9 | 7.0 | 0.00 | 0.00 | 0.00 | 77 | 1018.1 |
| 20260507045601 | 49 | 175 | 2.6 | 8.7 | 0.00 | 0.00 | 0.00 | 77 | 1018.1 |
| 20260507045059 | 49 | 0 | 0.9 | 9.6 | 0.00 | 0.00 | 0.00 | 77 | 1018.0 |
| 20260507044558 | 49 | 237 | 1.7 | 9.6 | 0.00 | 0.00 | 0.00 | 77 | 1018.1 |
| 20260507044102 | 49 | 237 | 0.9 | 9.6 | 0.00 | 0.00 | 0.00 | 77 | 1018.1 |
| 20260507043558 | 49 | 232 | 0.9 | 10.4 | 0.00 | 0.00 | 0.00 | 77 | 1018.1 |
| 20260507043058 | 49 | 273 | 1.7 | 10.4 | 0.00 | 0.00 | 0.00 | 76 | 1018.2 |
| 20260507042559 | 49 | 206 | 1.7 | 10.4 | 0.00 | 0.00 | 0.00 | 77 | 1018.0 |
| 20260507042059 | 49 | 293 | 2.6 | 8.7 | 0.00 | 0.00 | 0.00 | 76 | 1018.1 |
| 20260507041557 | 49 | 341 | 1.7 | 8.7 | 0.00 | 0.00 | 0.00 | 77 | 1018.0 |
| 20260507041058 | 50 | 177 | 1.7 | 7.0 | 0.00 | 0.00 | 0.00 | 76 | 1018.1 |
| 20260507040602 | 50 | 181 | 1.7 | 9.6 | 0.00 | 0.00 | 0.00 | 76 | 1018.1 |
| 20260507040059 | 50 | 220 | 1.7 | 9.6 | 0.00 | 0.00 | 0.00 | 76 | 1018.2 |
| 20260507035559 | 50 | 201 | 2.6 | 13.0 | 0.00 | 0.00 | 0.00 | 76 | 1018.1 |
| 20260507035059 | 50 | 234 | 2.6 | 13.0 | 0.00 | 0.00 | 0.00 | 75 | 1018.1 |
| 20260507034558 | 50 | 288 | 0.9 | 7.8 | 0.00 | 0.00 | 0.00 | 75 | 1018.0 |
| 20260507034058 | 50 | 245 | 1.7 | 9.6 | 0.00 | 0.00 | 0.00 | 75 | 1017.9 |
| 20260507033558 | 50 | 0 | 0.9 | 9.6 | 0.00 | 0.00 | 0.00 | 74 | 1017.9 |
| 20260507033058 | 51 | 127 | 3.5 | 9.6 | 0.00 | 0.00 | 0.00 | 74 | 1017.8 |
| 20260507032601 | 51 | 224 | 0.9 | 9.6 | 0.00 | 0.00 | 0.00 | 74 | 1017.8 |
| 20260507032100 | 51 | 126 | 1.7 | 9.6 | 0.00 | 0.00 | 0.00 | 73 | 1017.6 |
| 20260507031557 | 51 | 278 | 1.7 | 9.6 | 0.00 | 0.00 | 0.00 | 73 | 1017.6 |
| 20260507031103 | 51 | 170 | 1.7 | 6.1 | 0.00 | 0.00 | 0.00 | 72 | 1017.7 |
| 20260507030559 | 51 | 99 | 1.7 | 7.8 | 0.00 | 0.00 | 0.00 | 72 | 1017.6 |
| 20260507030059 | 52 | 192 | 1.7 | 7.8 | 0.00 | 0.00 | 0.00 | 72 | 1017.6 |
| 20260507025602 | 52 | 237 | 1.7 | 7.8 | 0.00 | 0.00 | 0.00 | 72 | 1017.6 |
| 20260507025058 | 52 | 339 | 0.9 | 9.6 | 0.00 | 0.00 | 0.00 | 71 | 1017.6 |
| 20260507024618 | 52 | 145 | 1.7 | 9.6 | 0.00 | 0.00 | 0.00 | 70 | 1017.5 |
| 20260507024059 | 53 | 224 | 2.6 | 9.6 | 0.00 | 0.00 | 0.00 | 70 | 1017.5 |
| 20260507023602 | 53 | 191 | 1.7 | 9.6 | 0.00 | 0.00 | 0.00 | 69 | 1017.3 |
| 20260507023057 | 53 | 75 | 1.7 | 9.6 | 0.00 | 0.00 | 0.00 | 69 | 1017.2 |
| 20260507022558 | 53 | 189 | 1.7 | 6.1 | 0.00 | 0.00 | 0.00 | 69 | 1017.1 |
| 20260507022058 | 53 | 186 | 1.7 | 7.0 | 0.00 | 0.00 | 0.00 | 69 | 1017.1 |
| 20260507021557 | 53 | 179 | 0.9 | 9.6 | 0.00 | 0.00 | 0.00 | 69 | 1017.1 |
| 20260507021059 | 53 | 214 | 2.6 | 9.6 | 0.00 | 0.00 | 0.00 | 69 | 1017.1 |
| 20260507020559 | 53 | 245 | 1.7 | 7.8 | 0.00 | 0.00 | 0.00 | 69 | 1017.2 |
| 20260507020109 | 53 | 218 | 2.6 | 7.8 | 0.00 | 0.00 | 0.00 | 69 | 1017.3 |
| 20260507015558 | 53 | 208 | 2.6 | 7.8 | 0.00 | 0.00 | 0.00 | 69 | 1017.2 |
| 20260507015055 | 54 | 195 | 2.6 | 7.8 | 0.00 | 0.00 | 0.00 | 68 | 1017.1 |
| 20260507014606 | 54 | 0 | 1.7 | 10.4 | 0.00 | 0.00 | 0.00 | 67 | 1017.1 |
| 20260507014058 | 54 | 241 | 1.7 | 10.4 | 0.00 | 0.00 | 0.00 | 66 | 1017.2 |
| 20260507013557 | 55 | 209 | 2.6 | 10.4 | 0.00 | 0.00 | 0.00 | 66 | 1017.2 |
| 20260507013058 | 55 | 199 | 2.6 | 8.7 | 0.00 | 0.00 | 0.00 | 65 | 1017.3 |
| 20260507012559 | 56 | 207 | 1.7 | 7.0 | 0.00 | 0.00 | 0.00 | 64 | 1017.1 |
| 20260507012058 | 56 | 255 | 1.7 | 15.6 | 0.00 | 0.00 | 0.00 | 64 | 1017.0 |
| 20260507011557 | 56 | 249 | 3.5 | 15.6 | 0.00 | 0.00 | 0.00 | 63 | 1017.0 |
| 20260507011058 | 57 | 203 | 2.6 | 7.0 | 0.00 | 0.00 | 0.00 | 62 | 1016.7 |
| 20260507010558 | 57 | 244 | 3.5 | 11.3 | 0.00 | 0.00 | 0.00 | 62 | 1016.9 |
| 20260507010056 | 57 | 233 | 3.5 | 13.0 | 0.00 | 0.00 | 0.00 | 61 | 1016.7 |
| 20260507005558 | 58 | 248 | 3.5 | 17.4 | 0.00 | 0.00 | 0.00 | 61 | 1016.6 |
| 20260507005058 | 58 | 242 | 4.3 | 17.4 | 0.00 | 0.00 | 0.00 | 60 | 1016.5 |
| 20260507004557 | 58 | 244 | 3.5 | 13.9 | 0.00 | 0.00 | 0.00 | 59 | 1016.6 |
| 20260507004058 | 59 | 251 | 2.6 | 13.9 | 0.00 | 0.00 | 0.00 | 59 | 1016.5 |
| 20260507003558 | 59 | 234 | 4.3 | 20.0 | 0.00 | 0.00 | 0.00 | 58 | 1016.6 |
| 20260507003058 | 60 | 203 | 3.5 | 20.0 | 0.00 | 0.00 | 0.00 | 56 | 1016.5 |
| 20260507002559 | 61 | 228 | 4.3 | 10.4 | 0.00 | 0.00 | 0.00 | 55 | 1016.4 |
| 20260507002102 | 62 | 254 | 3.5 | 13.0 | 0.00 | 0.00 | 0.00 | 54 | 1016.3 |
| 20260507001601 | 63 | 293 | 2.6 | 13.0 | 0.00 | 0.00 | 0.00 | 53 | 1016.3 |
| 20260507001058 | 63 | 242 | 3.5 | 9.6 | 0.00 | 0.00 | 0.00 | 51 | 1016.2 |
| 20260507000558 | 63 | 245 | 3.5 | 9.6 | 0.00 | 0.00 | 0.00 | 51 | 1016.2 |
| 20260507000056 | 64 | 264 | 4.3 | 9.6 | 0.00 | 0.00 | 0.00 | 50 | 1016.2 |
| 20260506235559 | 64 | 212 | 3.5 | 8.7 | 0.00 | 0.00 | 0.00 | 50 | 1016.2 |
| 20260506235058 | 64 | 180 | 4.3 | 17.4 | 0.00 | 0.00 | 0.00 | 50 | 1016.2 |
| 20260506234602 | 64 | 277 | 3.5 | 17.4 | 0.00 | 0.00 | 0.00 | 49 | 1016.0 |
| 20260506234058 | 64 | 280 | 3.5 | 13.0 | 0.00 | 0.00 | 0.00 | 50 | 1016.0 |
| 20260506233601 | 65 | 273 | 2.6 | 12.2 | 0.00 | 0.00 | 0.00 | 49 | 1015.9 |
| 20260506233102 | 66 | 233 | 2.6 | 11.3 | 0.00 | 0.00 | 0.00 | 47 | 1016.1 |
| 20260506232559 | 66 | 212 | 2.6 | 11.3 | 0.00 | 0.00 | 0.00 | 47 | 1015.9 |
| 20260506232059 | 66 | 228 | 3.5 | 11.3 | 0.00 | 0.00 | 0.00 | 47 | 1016.0 |
| 20260506231600 | 66 | 228 | 2.6 | 9.6 | 0.00 | 0.00 | 0.00 | 47 | 1015.9 |
| 20260506231101 | 65 | 241 | 2.6 | 9.6 | 0.00 | 0.00 | 0.00 | 47 | 1015.8 |
| 20260506230558 | 66 | 219 | 2.6 | 7.0 | 0.00 | 0.00 | 0.00 | 45 | 1015.9 |
| 20260506230059 | 66 | 243 | 2.6 | 10.4 | 0.00 | 0.00 | 0.00 | 45 | 1015.9 |
| 20260506225600 | 66 | 51 | 2.6 | 12.2 | 0.00 | 0.00 | 0.00 | 43 | 1015.8 |
| 20260506225100 | 67 | 163 | 3.5 | 20.0 | 0.00 | 0.00 | 0.00 | 44 | 1016.0 |
| 20260506224558 | 67 | 219 | 3.5 | 20.0 | 0.00 | 0.00 | 0.00 | 42 | 1015.9 |
| 20260506224058 | 68 | 259 | 3.5 | 8.7 | 0.00 | 0.00 | 0.00 | 41 | 1015.9 |
| 20260506223558 | 68 | 265 | 1.7 | 7.8 | 0.00 | 0.00 | 0.00 | 41 | 1015.9 |
| 20260506223059 | 68 | 280 | 2.6 | 6.1 | 0.00 | 0.00 | 0.00 | 41 | 1016.1 |
| 20260506222601 | 69 | 225 | 2.6 | 10.4 | 0.00 | 0.00 | 0.00 | 39 | 1016.1 |
| 20260506222059 | 70 | 353 | 2.6 | 10.4 | 0.00 | 0.00 | 0.00 | 40 | 1016.3 |
| 20260506221557 | 71 | 226 | 0.9 | 7.0 | 0.00 | 0.00 | 0.00 | 39 | 1016.1 |
| 20260506221058 | 71 | 261 | 1.7 | 7.0 | 0.00 | 0.00 | 0.00 | 39 | 1016.3 |
| 20260506220559 | 71 | 237 | 3.5 | 7.8 | 0.00 | 0.00 | 0.00 | 39 | 1016.3 |
| 20260506220059 | 72 | 220 | 1.7 | 8.7 | 0.00 | 0.00 | 0.00 | 39 | 1016.2 |
| 20260506215559 | 71 | 227 | 1.7 | 12.2 | 0.00 | 0.00 | 0.00 | 39 | 1016.3 |
| 20260506215059 | 71 | 250 | 1.7 | 12.2 | 0.00 | 0.00 | 0.00 | 40 | 1016.3 |
| 20260506214558 | 70 | 270 | 2.6 | 11.3 | 0.00 | 0.00 | 0.00 | 37 | 1016.4 |
| 20260506214059 | 72 | 306 | 1.7 | 11.3 | 0.00 | 0.00 | 0.00 | 38 | 1016.3 |
| 20260506213602 | 71 | 226 | 2.6 | 9.6 | 0.00 | 0.00 | 0.00 | 38 | 1016.4 |
| 20260506213131 | 71 | 297 | 1.7 | 6.1 | 0.00 | 0.00 | 0.00 | 38 | 1016.3 |
| 20260506212558 | 71 | 231 | 2.6 | 6.1 | 0.00 | 0.00 | 0.00 | 38 | 1016.5 |
| 20260506212059 | 71 | 276 | 1.7 | 7.0 | 0.00 | 0.00 | 0.00 | 39 | 1016.5 |
| 20260506211620 | 72 | 230 | 1.7 | 7.8 | 0.00 | 0.00 | 0.00 | 40 | 1016.5 |
| 20260506211058 | 71 | 247 | 0.9 | 7.8 | 0.00 | 0.00 | 0.00 | 41 | 1016.6 |
| 20260506210558 | 70 | 191 | 1.7 | 7.8 | 0.00 | 0.00 | 0.00 | 39 | 1016.6 |
| 20260506210103 | 70 | 232 | 0.9 | 9.6 | 0.00 | 0.00 | 0.00 | 38 | 1016.6 |
| 20260506205559 | 69 | 212 | 1.7 | 9.6 | 0.00 | 0.00 | 0.00 | 40 | 1016.7 |
| 20260506205059 | 68 | 231 | 2.6 | 8.7 | 0.00 | 0.00 | 0.00 | 42 | 1016.7 |
| 20260506204600 | 69 | 221 | 1.7 | 8.7 | 0.00 | 0.00 | 0.00 | 43 | 1016.7 |
| 20260506204058 | 68 | 249 | 2.6 | 8.7 | 0.00 | 0.00 | 0.00 | 41 | 1016.7 |
| 20260506203558 | 68 | 215 | 1.7 | 10.4 | 0.00 | 0.00 | 0.00 | 43 | 1016.7 |
| 20260506203058 | 67 | 268 | 1.7 | 10.4 | 0.00 | 0.00 | 0.00 | 45 | 1016.6 |
| 20260506202601 | 67 | 228 | 1.7 | 10.4 | 0.00 | 0.00 | 0.00 | 46 | 1016.7 |
| 20260506202101 | 67 | 0 | 3.5 | 10.4 | 0.00 | 0.00 | 0.00 | 45 | 1016.7 |
| 20260506201609 | 67 | 146 | 2.6 | 13.0 | 0.00 | 0.00 | 0.00 | 47 | 1016.6 |
| 20260506201101 | 66 | 230 | 3.5 | 13.0 | 0.00 | 0.00 | 0.00 | 48 | 1016.7 |
| 20260506200558 | 68 | 243 | 2.6 | 7.8 | 0.00 | 0.00 | 0.00 | 47 | 1016.4 |
| 20260506195559 | 68 | 242 | 3.5 | 10.4 | 0.00 | 0.00 | 0.00 | 49 | 1016.2 |
| 20260506195101 | 69 | 216 | 2.6 | 8.7 | 0.00 | 0.00 | 0.00 | 48 | 1016.1 |
| 20260506194628 | 69 | 218 | 3.5 | 8.7 | 0.00 | 0.00 | 0.00 | 48 | 1016.1 |
| 20260506194058 | 69 | 112 | 2.6 | 9.6 | 0.00 | 0.00 | 0.00 | 47 | 1016.1 |
| 20260506193559 | 69 | 267 | 3.5 | 9.6 | 0.00 | 0.00 | 0.00 | 47 | 1016.1 |
| 20260506193058 | 69 | 293 | 2.6 | 8.7 | 0.00 | 0.00 | 0.00 | 47 | 1016.1 |
| 20260506192559 | 69 | 185 | 3.5 | 8.7 | 0.00 | 0.00 | 0.00 | 46 | 1016.0 |
| 20260506192058 | 70 | 228 | 2.6 | 6.1 | 0.00 | 0.00 | 0.00 | 46 | 1016.0 |
| 20260506191600 | 69 | 93 | 1.7 | 7.0 | 0.00 | 0.00 | 0.00 | 45 | 1016.0 |
| 20260506191059 | 70 | 237 | 2.6 | 7.0 | 0.00 | 0.00 | 0.00 | 45 | 1016.1 |
| 20260506190558 | 69 | 222 | 1.7 | 7.8 | 0.00 | 0.00 | 0.00 | 45 | 1016.1 |